EA3FQO-2 Weather Reports


time (UTC)temp
C
wind
direction
speed
KPH
gust
KPH
rain 1hr
cm
rain 24hr
cm
rain mn
cm
humidity
%
barometer
mb
20260902143004 31 17 0.0 6.4 0.00 0.00 0.00 37 1016.5
20260902141504 31 22 0.0 3.2 0.00 0.00 0.00 33 1016.5
20260902134504 31 102 3.2 6.4 0.00 0.00 0.00 31 1016.5
20260902131504 32 66 3.2 9.7 0.00 0.00 0.00 27 1016.6
20260902130005 33 65 1.6 6.4 0.00 0.00 0.00 25 1016.4
20260902124504 33 76 1.6 4.8 0.00 0.00 0.00 25 1016.6
20260902123004 33 152 3.2 8.0 0.00 0.00 0.00 26 1016.6
20260902121504 33 28 0.0 4.8 0.00 0.00 0.00 26 1016.8
20260902120004 32 197 0.0 4.8 0.00 0.00 0.00 28 1016.9
20260902114504 32 321 0.0 3.2 0.00 0.00 0.00 30 1016.9
20260902113004 32 14 0.0 3.2 0.00 0.00 0.00 30 1016.8
20260902111504 32 28 0.0 3.2 0.00 0.00 0.00 30 1017.0
20260902110005 32 52 0.0 1.6 0.00 0.00 0.00 30 1017.1
20260902103004 32 340 0.0 1.6 0.00 0.00 0.00 32 1017.3
20260902101504 31 0 0.0 0.0 0.00 0.00 0.00 33 1017.5
20260902100004 31 0 0.0 0.0 0.00 0.00 0.00 34 1017.6
20260902094506 30 270 0.0 1.6 0.00 0.00 0.00 34 1017.6
20260902093006 29 306 0.0 1.6 0.00 0.00 0.00 34 1017.7
20260902091506 28 326 0.0 3.2 0.00 0.00 0.00 39 1017.7
20260902090006 27 135 0.0 3.2 0.00 0.00 0.00 43 1017.6
20260902084507 26 135 0.0 3.2 0.00 0.00 0.00 53 1017.6
20260902083006 25 0 0.0 0.0 0.00 0.00 0.00 59 1017.7
20260902081506 23 0 0.0 0.0 0.00 0.00 0.00 69 1017.5
20260902080006 20 0 0.0 0.0 0.00 0.00 0.00 85 1017.4
20260902074507 18 0 0.0 0.0 0.00 0.00 0.00 93 1017.4
20260902073006 17 0 0.0 0.0 0.00 0.00 0.00 99 1017.4
20260902071506 16 0 0.0 0.0 0.00 0.00 0.00 99 1017.3
20260902070007 15 0 0.0 0.0 0.00 0.00 0.00 99 1017.2
20260902064506 15 0 0.0 0.0 0.00 0.00 0.00 99 1017.2
20260902063006 14 0 0.0 0.0 0.00 0.00 0.00 99 1017.3
20260902054505 13 0 0.0 0.0 0.00 0.00 0.00 99 1017.0
20260902053006 13 0 0.0 0.0 0.00 0.00 0.00 99 1016.8
20260902051506 13 0 0.0 0.0 0.00 0.00 0.00 99 1016.7
20260902050008 13 0 0.0 0.0 0.00 0.00 0.00 99 1016.6
20260902044505 13 0 0.0 0.0 0.00 0.00 0.00 98 1016.5
20260902040006 14 0 0.0 0.0 0.00 0.00 0.00 98 1016.6
20260902033005 14 0 0.0 0.0 0.00 0.00 0.00 98 1016.7
20260902031506 14 0 0.0 0.0 0.00 0.00 0.00 98 1016.6
20260902030006 15 0 0.0 0.0 0.00 0.00 0.00 98 1016.7
20260902024505 15 0 0.0 0.0 0.00 0.00 0.00 98 1016.6
20260902023005 15 0 0.0 0.0 0.00 0.00 0.00 98 1016.7
20260902021505 15 0 0.0 0.0 0.00 0.00 0.00 98 1016.6
20260902020006 15 0 0.0 0.0 0.00 0.00 0.00 98 1016.5
20260902014505 15 0 0.0 0.0 0.00 0.00 0.00 97 1016.5
20260902013005 15 0 0.0 0.0 0.00 0.00 0.00 97 1016.5
20260902011506 15 0 0.0 0.0 0.00 0.00 0.00 97 1016.5
20260902010005 15 0 0.0 0.0 0.00 0.00 0.00 96 1016.6
20260902004505 15 0 0.0 0.0 0.00 0.00 0.00 96 1016.7
20260902003005 16 0 0.0 0.0 0.00 0.00 0.00 96 1016.6
20260902000006 16 0 0.0 0.0 0.00 0.00 0.00 95 1016.5
20260901234505 16 0 0.0 0.0 0.00 0.00 0.00 95 1016.4
20260901233005 16 0 0.0 0.0 0.00 0.00 0.00 94 1016.5
20260901231505 16 0 0.0 0.0 0.00 0.00 0.00 93 1016.5
20260901230006 16 0 0.0 0.0 0.00 0.00 0.00 92 1016.6
20260901224506 16 0 0.0 0.0 0.00 0.00 0.00 91 1016.5
20260901223006 16 0 0.0 0.0 0.00 0.00 0.00 91 1016.4
20260901221505 16 0 0.0 0.0 0.00 0.00 0.00 90 1016.5
20260901220007 16 0 0.0 0.0 0.00 0.00 0.00 90 1016.1
20260901214505 17 0 0.0 0.0 0.00 0.00 0.00 89 1016.0
20260901213005 17 0 0.0 0.0 0.00 0.00 0.00 87 1016.1
20260901211505 17 0 0.0 0.0 0.00 0.00 0.00 83 1016.1
20260901210005 17 0 0.0 0.0 0.00 0.00 0.00 81 1016.0
20260901204504 18 0 0.0 0.0 0.00 0.00 0.00 80 1016.1
20260901201505 18 0 0.0 0.0 0.00 0.00 0.00 78 1015.9
20260901194505 19 0 0.0 0.0 0.00 0.00 0.00 74 1015.7
20260901193005 20 0 0.0 0.0 0.00 0.00 0.00 73 1015.5
20260901191505 20 0 0.0 0.0 0.00 0.00 0.00 71 1015.3
20260901190005 21 0 0.0 0.0 0.00 0.00 0.00 69 1015.3
20260901184504 22 314 0.0 1.6 0.00 0.00 0.00 66 1015.0
20260901183005 22 56 0.0 1.6 0.00 0.00 0.00 62 1014.9
20260901180004 24 48 0.0 3.2 0.00 0.00 0.00 59 1014.7
20260901174505 25 6 0.0 1.6 0.00 0.00 0.00 56 1014.6
20260901173005 26 30 0.0 3.2 0.00 0.00 0.00 54 1014.7
20260901171505 27 301 0.0 1.6 0.00 0.00 0.00 52 1014.7
20260901170005 28 10 0.0 3.2 0.00 0.00 0.00 46 1014.6
20260901164504 28 347 1.6 4.8 0.00 0.00 0.00 44 1014.3
20260901161505 30 14 4.8 9.7 0.00 0.00 0.00 43 1014.7
20260901160004 28 21 0.0 3.2 0.00 0.00 0.00 47 1014.4
20260901154504 28 341 0.0 4.8 0.00 0.00 0.00 47 1014.2
20260901153005 29 60 3.2 9.7 0.00 0.00 0.00 45 1014.1
20260901151504 30 27 1.6 6.4 0.00 0.00 0.00 42 1014.2
20260901150004 31 334 0.0 6.4 0.00 0.00 0.00 40 1014.5
20260901144504 31 21 0.0 4.8 0.00 0.00 0.00 40 1014.3